Wind_Speed
5 5 4 1 3 3 5 8 12 15 18 25 30 36 33 32 32 31 32 33 37 44 44 40 43 54 52 45 40 36 35 40 33 40 43 43 43 43 40 34 32 27 30 30
9 8 5 4 6 5 8 12 16 20 17 26 31 43 40 37 36 32 33 35 38 41 42 42 42 44 49 51 50 45 40 35 43 41 37 36 44 45 42 42 29 31 31 31
4 7 5 6 7 7 10 16 17 18 22 22 20 34 21 20 25 26 32 35 37 40 44 46 46 45 44 43 47 51 50 43 41 45 46 38 34 43 36 37 34 29 33 32
4 3 10 9 7 11 18 15 15 17 18 16 23 9 32 14 13 21 27 24 30 37 43 44 47 49 50 48 43 46 51 50 48 45 45 44 46 41 42 39 36 34 33 33
12 14 16 15 12 12 17 14 18 21 25 24 16 15 3 14 22 20 17 20 22 26 32 37 48 50 54 56 51 45 48 51 50 51 51 47 44 44 48 45 38 33 35 34
19 16 15 10 10 13 15 17 20 21 14 5 11 12 8 2 6 27 24 26 27 27 28 31 35 42 52 56 57 54 46 49 51 49 52 52 48 44 43 47 41 37 38 37
17 11 13 14 15 15 14 15 8 5 1 5 3 13 29 25 35 24 23 21 19 21 24 27 31 37 41 47 56 57 56 50 49 51 50 52 49 48 45 41 40 36 39 38
8 6 12 12 13 16 20 19 6 5 3 7 21 15 22 34 37 33 19 19 20 26 28 29 31 34 38 39 42 56 60 58 52 53 49 49 50 53 49 42 39 37 35 35
6 8 9 13 14 20 8 8 10 17 20 7 13 27 37 25 15 9 20 24 28 32 29 35 35 39 40 40 41 44 59 63 57 54 53 46 49 49 58 49 41 40 37 35
9 11 17 14 15 12 17 16 7 5 3 5 8 18 25 26 19 16 22 25 32 34 32 34 41 41 43 41 40 45 52 60 62 54 54 47 45 46 51 49 43 44 37 36
13 11 12 13 15 17 13 14 11 9 11 4 5 10 13 18 27 22 29 34 32 35 34 40 47 52 45 44 44 45 46 56 62 60 53 49 44 44 46 45 41 36 34 35
15 12 14 22 11 15 15 17 17 10 6 10 7 33 36 34 20 24 38 33 34 36 39 40 49 29 29 43 46 45 45 54 61 60 49 47 40 43 45 41 34 31 35 34
10 8 6 8 3 7 6 5 13 18 24 22 12 24 13 19 36 38 35 36 35 37 40 42 35 22 22 34 41 41 41 49 58 62 49 43 40 40 42 38 33 35 36 34
18 19 21 19 15 17 31 32 27 26 20 27 40 50 53 45 39 33 35 34 37 36 42 49 45 19 24 27 31 31 33 42 54 60 50 41 41 40 38 34 34 37 34 33
24 34 32 35 30 28 32 33 31 31 34 33 52 40 48 37 34 33 31 37 33 36 37 44 51 10 20 27 30 30 26 35 43 60 51 43 41 35 36 34 37 36 34 32
14 15 14 21 21 27 33 32 31 30 23 31 35 41 30 30 30 30 34 28 36 32 36 46 39 16 18 16 15 31 18 29 40 48 55 47 44 35 33 32 33 33 33 34
23 17 12 21 18 14 20 25 11 13 18 20 23 30 28 31 31 23 26 34 31 31 38 43 31 26 35 21 6 31 14 33 35 36 40 42 41 35 31 33 35 33 34 30
33 29 21 19 12 6 14 11 13 26 29 22 26 34 29 23 27 27 38 42 33 31 38 36 13 37 35 31 22 7 28 29 32 30 32 34 33 34 36 35 33 30 30 29
18 25 18 7 10 18 30 16 14 16 30 22 24 13 28 36 31 37 43 35 31 34 40 33 32 34 22 19 19 6 23 25 28 29 30 32 34 35 35 33 31 25 30 31
2 9 21 7 5 5 11 15 22 23 29 9 29 34 37 34 42 43 32 29 30 33 39 34 29 22 14 14 12 10 11 22 30 35 36 36 33 31 27 25 24 35 33 27
4 6 16 18 13 14 25 20 16 10 15 44 43 38 38 44 42 38 31 33 34 37 39 32 25 19 14 12 10 8 7 18 23 28 32 32 27 25 27 28 36 35 30 28
4 5 8 9 8 9 9 18 27 35 50 46 43 43 36 34 29 30 34 36 36 38 35 28 20 15 13 13 12 5 5 13 24 27 28 29 29 31 33 32 32 30 28 26
5 5 16 17 21 31 37 38 37 35 40 36 35 35 34 37 39 41 39 37 37 37 32 22 16 12 13 11 8 5 2 12 30 29 28 32 33 31 31 32 30 28 26 24
18 25 27 27 27 28 30 29 23 24 28 31 36 37 39 42 41 44 43 42 40 36 28 19 13 12 13 11 8 3 6 10 33 33 34 34 39 32 29 30 27 25 23 20
23 20 21 27 26 30 25 26 32 34 36 39 41 43 43 48 51 51 47 36 33 28 20 18 15 13 15 11 11 7 6 10 28 38 36 35 31 31 32 29 26 23 20 17
22 23 25 34 23 25 33 35 38 41 43 47 51 55 53 52 50 43 36 32 29 20 17 18 13 12 13 12 11 12 7 22 19 33 35 32 29 29 27 26 27 26 23 21
Wind_Direction
254 243 228 190 336 334 328 323 317 311 305 296 284 275 269 259 256 254 252 250 243 247 250 254 249 250 255 250 245 236 235 228 224 233 235 237 236 244 251 251 258 258 268 275
259 254 216 265 318 299 301 312 315 314 311 299 298 286 284 276 269 266 265 258 251 247 251 251 248 245 247 251 249 246 238 233 223 222 227 241 241 237 246 249 252 263 269 270
114 125 11 323 276 290 304 310 309 314 320 311 309 309 306 301 276 271 267 267 264 259 256 256 252 248 245 244 246 247 244 236 235 228 223 229 237 235 232 237 251 255 255 273
216 279 322 304 284 307 306 321 313 317 321 313 316 282 301 321 295 285 279 274 268 268 263 264 261 249 249 245 242 244 242 240 235 232 232 224 230 232 233 241 243 247 256 272
280 301 302 294 287 293 307 308 312 315 310 304 303 290 289 302 282 291 278 281 278 272 269 266 262 257 251 249 245 239 240 237 236 235 237 234 228 232 237 236 236 245 258 268
285 287 290 281 277 276 294 298 305 306 291 286 288 252 292 289 83 319 309 299 291 289 285 278 272 264 259 254 249 244 239 238 234 231 232 236 233 231 232 232 236 243 255 261
272 252 272 277 277 278 284 295 330 321 30 234 300 295 260 271 293 295 317 301 294 292 288 284 276 267 265 261 255 248 241 237 237 237 237 233 234 231 231 236 242 242 248 258
265 264 260 260 264 282 286 287 239 254 223 272 287 261 267 293 292 293 287 295 296 294 288 284 284 278 273 268 259 253 243 238 237 235 237 234 233 237 234 236 239 241 245 252
259 263 245 240 254 279 276 247 263 267 279 282 252 265 286 303 311 276 278 297 294 291 286 293 290 278 271 270 267 258 246 237 234 234 238 241 231 232 239 242 244 248 243 247
282 283 292 292 285 262 267 268 247 217 296 264 259 273 263 292 299 292 303 306 307 291 293 296 297 286 266 266 269 261 248 239 232 232 234 239 239 230 235 239 241 237 238 246
287 280 281 289 276 291 250 232 244 243 242 222 296 258 278 280 302 306 310 316 304 303 302 303 301 300 277 261 259 262 255 239 229 229 229 233 239 230 230 231 229 228 235 246
281 274 269 289 290 259 249 241 246 237 233 237 270 273 282 291 289 298 317 310 305 301 299 301 304 291 264 251 249 255 256 239 230 223 226 226 233 224 228 226 221 225 238 248
265 252 297 308 203 183 193 225 282 274 269 257 261 266 284 279 291 306 309 313 310 303 304 303 299 291 265 250 249 250 247 243 227 218 217 220 225 218 223 228 225 228 240 253
271 264 251 244 252 271 283 284 281 277 265 276 255 273 285 293 301 311 310 308 310 315 316 310 307 268 264 264 256 254 257 246 226 213 211 218 219 217 217 218 225 233 244 252
259 267 265 268 270 269 275 282 287 274 270 256 277 275 284 302 306 306 299 306 306 316 318 315 318 280 259 263 239 239 240 231 223 210 211 214 219 210 211 219 230 235 244 260
240 265 273 269 268 275 275 278 282 283 280 281 289 280 304 300 300 297 301 307 315 322 328 318 316 263 296 232 236 221 205 200 210 214 214 217 217 215 217 225 232 238 251 263
257 262 276 277 292 279 275 286 257 262 275 292 293 310 304 304 294 294 315 323 318 326 328 323 312 273 323 338 87 199 167 190 190 198 203 209 211 215 223 227 231 239 252 258
258 259 254 260 267 242 263 264 270 285 288 279 288 308 303 309 298 281 305 319 317 321 330 329 307 304 316 329 349 117 181 171 172 175 179 191 197 210 217 225 235 245 252 211
242 241 232 233 219 269 282 291 267 305 295 295 307 319 320 317 300 293 313 307 306 316 325 330 303 311 330 2 29 121 173 182 175 182 188 193 205 215 224 233 242 228 197 198
197 237 231 227 253 244 289 292 293 299 290 327 316 306 306 305 301 312 319 316 308 309 319 318 306 314 312 325 10 42 182 181 185 191 196 200 208 218 225 219 202 188 195 197
206 231 233 254 259 270 288 286 289 272 292 306 302 301 299 296 296 301 309 313 310 310 315 311 305 309 299 308 340 353 160 204 195 193 200 196 199 204 196 196 185 192 194 199
336 306 223 242 250 267 295 299 295 296 297 297 298 298 299 298 299 300 303 306 307 305 309 301 293 292 278 292 320 351 191 201 204 198 199 197 188 187 192 187 196 195 200 202
295 299 291 281 270 279 288 290 290 290 289 297 303 296 295 294 298 298 298 297 298 297 301 283 274 262 260 269 301 23 249 215 197 201 204 189 173 181 191 193 198 192 192 202
312 308 297 304 302 305 302 302 304 305 303 293 298 298 294 293 293 294 291 292 292 290 282 261 250 232 236 237 264 212 212 221 186 186 204 180 176 189 193 190 186 193 198 196
321 324 317 304 320 329 331 328 322 313 308 305 301 299 293 292 290 291 289 284 283 280 257 241 235 213 219 222 263 223 202 226 200 194 194 196 186 190 185 181 178 180 179 183
325 323 311 307 335 322 320 325 321 317 315 310 304 301 296 293 291 287 280 279 273 255 231 227 218 209 207 222 262 264 191 164 166 202 193 169 177 180 180 175 172 170 173 183
Height
3073 3073 3073 3075 3075 3074 3074 3073 3072 3071 3070 3067 3063 3058 3060 3063 3067 3067 3068 3070 3073 3073 3075 3076 3080 3084 3088 3092 3097 3102 3102 3103 3104 3110 3114 3116 3119 3125 3129 3133 3137 3139 3142 3143
3071 3071 3072 3073 3072 3072 3071 3071 3069 3067 3065 3062 3057 3046 3050 3054 3054 3058 3059 3060 3063 3065 3066 3068 3071 3077 3081 3083 3088 3094 3096 3096 3098 3100 3104 3108 3112 3118 3122 3126 3130 3134 3136 3137
3069 3071 3071 3070 3070 3069 3069 3068 3066 3064 3060 3058 3052 3041 3041 3042 3044 3046 3049 3051 3055 3057 3057 3060 3062 3066 3068 3074 3077 3082 3086 3089 3091 3094 3094 3098 3104 3108 3113 3115 3123 3126 3130 3131
3069 3069 3068 3067 3067 3066 3065 3064 3062 3060 3058 3055 3054 3042 3039 3039 3041 3042 3042 3044 3044 3046 3048 3050 3051 3054 3058 3062 3065 3069 3073 3077 3083 3086 3088 3088 3095 3099 3107 3113 3117 3120 3123 3124
3068 3066 3066 3064 3064 3063 3062 3060 3058 3055 3053 3050 3049 3045 3032 3034 3037 3039 3038 3038 3039 3037 3035 3036 3036 3041 3047 3050 3055 3058 3060 3065 3070 3075 3079 3083 3083 3090 3099 3104 3107 3111 3115 3117
3063 3063 3062 3061 3061 3060 3058 3056 3055 3051 3050 3047 3044 3045 3023 3027 3029 3032 3032 3031 3031 3030 3029 3027 3027 3027 3030 3034 3038 3042 3046 3051 3058 3064 3068 3072 3077 3082 3087 3094 3098 3102 3107 3108
3059 3059 3059 3058 3058 3057 3056 3055 3053 3050 3048 3046 3043 3040 3024 3026 3026 3027 3025 3023 3021 3019 3017 3016 3016 3015 3016 3018 3022 3026 3031 3038 3045 3050 3056 3061 3068 3073 3078 3084 3090 3095 3098 3101
3055 3055 3055 3054 3054 3053 3052 3053 3056 3053 3048 3042 3044 3029 3017 3021 3021 3021 3020 3018 3015 3013 3011 3008 3006 3007 3006 3005 3008 3010 3017 3024 3033 3038 3045 3050 3057 3062 3067 3074 3080 3084 3088 3093
3052 3049 3050 3050 3049 3050 3047 3047 3049 3046 3043 3040 3032 3024 3015 3013 3012 3014 3015 3013 3012 3008 3005 3003 3000 2997 2994 2994 2996 2998 3003 3012 3019 3027 3034 3040 3045 3051 3057 3065 3071 3075 3079 3083
3048 3046 3044 3044 3044 3044 3043 3045 3045 3046 3046 3043 3022 3018 3010 3009 3010 3011 3012 3008 3004 2999 2997 2993 2989 2985 2984 2984 2986 2986 2989 2996 3005 3014 3022 3028 3035 3042 3048 3055 3061 3065 3071 3074
3044 3043 3042 3040 3038 3038 3039 3038 3040 3041 3038 3034 3024 3005 3004 3005 3007 3005 3005 3002 2997 2992 2987 2982 2976 2971 2967 2970 2971 2972 2975 2980 2989 3000 3011 3019 3026 3032 3038 3045 3050 3057 3062 3065
3041 3039 3036 3035 3033 3032 3032 3033 3035 3034 3031 3026 3023 2991 2998 3001 3001 2999 2997 2993 2989 2984 2979 2973 2968 2959 2956 2955 2955 2957 2962 2965 2975 2988 3000 3009 3018 3023 3029 3035 3042 3047 3053 3056
3037 3034 3034 3031 3032 3029 3029 3029 3029 3028 3024 3018 3020 2991 2993 2995 2996 2996 2989 2985 2981 2976 2970 2965 2958 2949 2947 2944 2943 2945 2948 2951 2960 2974 2989 2999 3007 3014 3021 3029 3034 3039 3044 3050
3031 3028 3028 3027 3026 3026 3024 3021 3022 3022 3016 3009 2998 2990 2987 2990 2989 2988 2984 2979 2974 2969 2963 2954 2947 2939 2939 2936 2936 2936 2937 2940 2947 2962 2978 2988 2998 3006 3014 3020 3026 3032 3038 3041
3025 3018 3020 3017 3018 3018 3015 3011 3010 3010 3005 3004 2982 2990 2983 2985 2983 2980 2976 2973 2968 2963 2955 2948 2940 2935 2933 2930 2928 2926 2928 2932 2939 2952 2967 2979 2990 2998 3006 3013 3019 3025 3029 3032
3017 3014 3013 3011 3012 3011 3005 3001 2999 2998 2995 2991 2985 2980 2981 2981 2978 2975 2971 2968 2962 2957 2949 2939 2932 2929 2926 2922 2919 2919 2919 2926 2935 2946 2959 2971 2982 2991 2998 3005 3011 3016 3020 3022
3011 3011 3011 3004 3006 3004 2998 2990 2989 2989 2988 2987 2982 2978 2977 2975 2973 2969 2966 2963 2956 2950 2943 2933 2924 2922 2913 2909 2905 2909 2907 2924 2931 2941 2952 2964 2974 2983 2991 2997 3002 3007 3011 3013
3000 3004 3007 3001 3002 2998 2988 2986 2985 2983 2980 2982 2980 2976 2973 2970 2967 2963 2961 2956 2950 2946 2940 2933 2922 2925 2913 2893 2893 2907 2912 2919 2928 2938 2948 2957 2968 2977 2983 2989 2994 2999 3002 3007
2993 2996 2998 2997 2994 2987 2982 2982 2981 2979 2974 2978 2976 2973 2969 2965 2959 2957 2955 2949 2945 2937 2932 2929 2925 2918 2913 2905 2903 2906 2912 2920 2927 2936 2945 2955 2963 2970 2976 2981 2986 2991 2997 3004
2990 2992 2994 2992 2989 2986 2980 2978 2976 2975 2970 2972 2970 2968 2963 2960 2950 2947 2946 2942 2938 2933 2926 2921 2920 2918 2915 2913 2910 2910 2912 2918 2924 2933 2941 2948 2957 2963 2969 2974 2980 2988 2995 3001
2989 2990 2990 2989 2987 2980 2976 2974 2972 2972 2971 2964 2960 2959 2956 2952 2949 2942 2939 2935 2932 2925 2921 2917 2914 2912 2910 2909 2910 2911 2912 2916 2923 2929 2937 2944 2951 2959 2965 2971 2979 2986 2992 2998
2987 2987 2986 2985 2983 2978 2973 2972 2971 2967 2958 2954 2951 2948 2944 2941 2937 2935 2931 2928 2924 2919 2916 2913 2910 2909 2908 2907 2908 2909 2912 2916 2923 2928 2935 2942 2946 2955 2963 2973 2978 2984 2989 2994
2988 2988 2986 2985 2977 2973 2970 2964 2960 2955 2949 2946 2941 2937 2933 2930 2926 2923 2920 2918 2914 2911 2909 2906 2907 2908 2904 2906 2907 2908 2910 2914 2919 2926 2933 2940 2945 2951 2961 2970 2976 2981 2986 2992
2984 2982 2977 2974 2965 2964 2960 2956 2950 2946 2941 2937 2932 2927 2923 2918 2916 2911 2909 2906 2902 2901 2901 2901 2903 2904 2903 2905 2906 2909 2910 2913 2916 2922 2931 2939 2943 2953 2961 2966 2973 2980 2985 2989
2980 2975 2970 2964 2960 2954 2951 2948 2942 2937 2932 2926 2920 2915 2910 2906 2901 2898 2895 2892 2889 2890 2893 2895 2897 2899 2901 2904 2903 2907 2910 2912 2916 2922 2929 2926 2948 2955 2960 2966 2972 2978 2985 2991
2974 2970 2966 2958 2956 2951 2944 2939 2933 2924 2918 2912 2904 2895 2890 2886 2879 2879 2879 2880 2879 2881 2885 2888 2893 2896 2899 2900 2902 2903 2908 2910 2910 2911 2923 2935 2950 2955 2960 2966 2971 2977 2983 2988